Location: Camaret
(48.2753°N, 4.5961°W)
Time: 04:33:00
(UTC+00:00)

CSL-04 Debris - Pass Details

Date: 29 October 2020
Orbit: 827 x 848 km, 98.9° (Epoch: 01 December)

Event Time Altitude Azimuth Distance (km) Brightness Sun altitude
Rises 19:17:25 0° 168° (SSE) 3,373 7.2 -22.7°
Reaches altitude 10° 19:19:46 10° 170° (S) 2,446 6.4 -23.1°
Maximum altitude 19:25:12 75° 256° (WSW) 874 4.3 -24.0°
Drops below altitude 10° 19:30:42 10° 342° (NNW) 2,477 6.9 -24.9°
Sets 19:33:05 0° 344° (NNW) 3,419 7.7 -25.3°
